Location: Sungai Laei
(2.6000°N, 113.7167°E)
Time: 13:54:52
(UTC+00:00)

Atlas Centaur 2 - Pass Details

Date: 22 May 2022
Orbit: 459 x 1304 km, 30.4° (Epoch: 06 July)

Event Time Altitude Azimuth Distance (km) Brightness Sun altitude
Exits shadow 21:20:08 11° 215° (SW) 3,070 4.6 -13.5°
Maximum altitude 21:27:28 43° 147° (SSE) 1,730 3.9 -11.8°
Drops below altitude 10° 21:35:24 10° 79° (ENE) 3,299 6.8 -9.9°
Sets 21:38:29 0° 72° (ENE) 4,234 8.2 -9.2°
